Location: Observatoire
(46.1952°N, 5.3391°E)
Time: 10:39:07
(UTC+02:00)

CUTE 1.7 + AOD 2 - Pass Details

Date: 26 April 2024
Orbit: 569 x 586 km, 97.8° (Epoch: 29 May)

Event Time Altitude Azimuth Distance (km) Brightness Sun altitude
Rises 05:35:04 0° 9° (N) 2,788 ? -9.8°
Reaches altitude 10° 05:37:15 10° 6° (N) 1,884 ? -9.4°
Maximum altitude 05:41:15 59° 287° (WNW) 665 ? -8.8°
Drops below altitude 10° 05:45:13 10° 208° (SSW) 1,865 ? -8.2°
Enters shadow 05:46:06 - 206° (SSW) 2,228 ? -8.1°
